Home   Weather   Freising   Past weeks

Flag for Germany Past Weather in Freising, Bavaria, Germany — Yesterday and Last 2 Weeks

Now
61 °F

Partly sunny.


Feels Like: 61 °F
Forecast: 55 / 64 °F
Wind: 8 mph from West

Location: Munich / Franz Josef Strauss Airport

Current Time: Jul 24, 2017 at 6:39:07 pm

Latest Report: Jul 24, 2017 at 6:20 pm


Visibility: N/A

Pressure: 29.83 "Hg

Humidity: 77%

Dew Point: 54 °F

Location of FreisingLocation

Past Weather in Freising — Graph

°F

Freising Temperature Yesterday

Maximum temperature yesterday: 72 °F (at 1:50 pm)
Minimum temperature yesterday: 61 °F (at 12:50 am)
Average temperature yesterday: 66 °F

High & Low Weather Summary for the Past Weeks

 TemperatureHumidityPressure
High90 °F (Jul 19, 3:20 pm)100% (Jul 10, 2:20 am)30.30 "Hg (Jul 10, 2:20 am)
Low46 °F (Jul 16, 5:50 am)27% (Jul 19, 4:50 pm)29.80 "Hg (Jul 24, 10:50 am)
Average67 °F69%30.03 "Hg
* Reported Jul 9 5:20 pm — Jul 24 5:20 pm, Freising. Weather by CustomWeather, © 2017

Note: Actual official high and low records may vary slightly from our data, if they occured in-between our weather recording intervals... More about our weather records

Advertising

Freising Weather History for the Previous 24 Hours

Scroll right to see more
 ConditionsComfort  
Time TempWeatherWind HumidityBarometerVisibility
5:20 pm
Mon, Jul 24
61 °FPartly sunny.13 mph83%29.83 "HgN/A
4:50 pm61 °FPartly sunny.13 mph83%29.83 "HgN/A
4:20 pm61 °FBroken clouds.13 mph83%29.83 "HgN/A
3:50 pm59 °FLight rain. Partly sunny.12 mph88%29.83 "HgN/A
3:30 pm61 °FLight rain. Partly sunny.22 mph77%29.83 "HgN/A
2:58 pm64 °FLight rain. Overcast.15 mph83%29.80 "HgN/A
2:20 pm63 °FLight rain. Overcast.14 mph88%29.80 "HgN/A
1:50 pm63 °FLight rain. Overcast.13 mph88%29.80 "HgN/A
1:20 pm64 °FLight rain. Partly sunny.14 mph83%29.80 "HgN/A
12:50 pm64 °FLight rain. Partly sunny.10 mph88%29.80 "HgN/A
12:20 pm63 °FLight rain. Partly sunny.9 mph94%29.80 "HgN/A
11:50 am63 °FLight rain. Broken clouds.7 mph94%29.80 "HgN/A
11:27 am63 °FSprinkles. Broken clouds.8 mph88%29.83 "HgN/A
11:20 am63 °FScattered showers. Partly sunny.8 mph88%29.83 "HgN/A
10:50 am64 °FBroken clouds.7 mph83%29.80 "HgN/A
10:20 am63 °FScattered showers. Broken clouds.9 mph88%29.83 "HgN/A
9:50 am63 °FScattered showers. Partly sunny.9 mph88%29.83 "HgN/A
9:20 am63 °FBroken clouds.10 mph88%29.83 "HgN/A
8:50 am63 °FBroken clouds.9 mph88%29.83 "HgN/A
8:20 am63 °FPartly sunny.8 mph88%29.83 "HgN/A
7:58 am61 °FPartly sunny.6 mph94%29.83 "HgN/A
7:50 am61 °FBroken clouds.6 mph100%29.86 "HgN/A
7:20 am61 °FPartly sunny.5 mph94%29.86 "Hg6 mi
6:50 am61 °FPartly sunny.6 mph94%29.86 "Hg6 mi
6:20 am61 °FBroken clouds.5 mph94%29.89 "HgN/A
5:50 am59 °FBroken clouds.3 mph100%29.89 "HgN/A
5:20 am61 °FPassing clouds.3 mph94%29.92 "HgN/A
4:20 am61 °FSprinkles. Mostly cloudy.7 mph94%29.92 "HgN/A
3:50 am61 °FSprinkles. Partly cloudy.7 mph94%29.95 "HgN/A
2:50 am59 °FPassing clouds.3 mph100%29.95 "HgN/A
2:20 am61 °FLight rain. Partly cloudy.3 mph94%29.98 "Hg6 mi
1:50 am61 °FLight rain. Partly cloudy.3 mph94%30.01 "Hg6 mi
1:20 am61 °FLight rain. Partly cloudy.1 mph94%30.01 "HgN/A
12:50 am61 °FLight rain. Passing clouds.1 mph94%30.01 "HgN/A
12:20 am61 °FSprinkles. Passing clouds.3 mph94%30.04 "HgN/A
11:50 pm
Sun, Jul 23
61 °FPartly cloudy.5 mph94%30.04 "HgN/A
11:20 pm61 °FScattered showers. Passing clouds.3 mph94%30.04 "HgN/A
10:20 pm61 °FPassing clouds.6 mph94%30.04 "HgN/A
9:50 pm63 °FScattered showers. Passing clouds.8 mph88%30.04 "HgN/A
9:20 pm63 °FSprinkles. Partly cloudy.8 mph83%30.04 "HgN/A
8:50 pm64 °FSprinkles. Partly sunny.8 mph78%30.04 "HgN/A
8:20 pm66 °FPartly sunny.5 mph73%30.04 "HgN/A
7:50 pm66 °FPartly sunny.3 mph73%30.04 "HgN/A
7:20 pm68 °FSprinkles. Partly sunny.5 mph69%30.04 "HgN/A
6:50 pm70 °FSprinkles. Partly sunny.7 mph60%30.04 "HgN/A
6:20 pm72 °FPartly sunny.7 mph57%30.04 "HgN/A
Weather by CustomWeather, © 2017

See weather overviewHow to use our weather pages